www.pogodaiklimat.ru

Погода и климат >> Архив погоды >> Швеция >> Свенска Хогарна АМС


ПОГОДА в Свенска Хогарна АМС

  • Прогноз погоды в Свенска Хогарна АМС
  • Монитор погоды в Свенска Хогарна АМС

АРХИВ ПОГОДЫ в Свенска Хогарна АМС

Время (UTC), дата Ветер
(напр.,м/с)
 
Видим.   Явления Облачность Т
(С)
Тd
(С)
f
(%)
Тe
(С)
Тes
(С)
Комфортность P
(гПа)
Po
(гПа)
Тmin
(С)
Tmax
(С)
R
(мм)
R24
(мм)
S
(см)
16 11.09 ЮЗ 10
{14}
25 км 10/10 900 м
[]
+16.1 +13.6 85 +14 +14 1010.9 1009.3
17 11.09 ЮЗ 9
{14}
30 км ясно +15.6 +13.3 86 +14 +14 1011.5 1009.9
18 11.09 ЮЗ 9
{13}
35 км ясно +15.7 +12.4 81 +14 +14 1012.1 1010.5 +14.9 +16.9
19 11.09 ЮЗ 10
{12}
40 км ясно +16.0 +12.7 81 +14 +14 1012.1 1010.5
20 11.09 ЮЗ 10
{14}
45 км ясно +16.2 +11.5 74 +14 +14 1012.0 1010.3
21 11.09 Ю 11
{17}
30 км 10/0 2000 м
[]
+16.2 +12.8 80 +14 +14 1011.7 1010.0
22 11.09 ЮЗ 13
{17}
24 км слаб. дождь 9/0
[]
+15.9 +12.9 82 +13 +13 1011.5 1009.8 2
23 11.09 ЮЗ 14
{20}
12 км в посл. час дождь {ливн. осадки} 10/10 500 м
[]
+14.6 +12.7 88 +11 +11 1011.0 1009.4 0.5
00 12.09 ЮЗ 14
{19}
21 км {ливн. осадки, дождь} 10/10 500 м
[]
+15.2 +13.0 87 +12 +12 1010.4 1008.7
01 12.09 Ю 15
{21}
6000 м слаб. ливневой дождь 10/10 180 м
[]
+14.6 +13.6 94 +11 +11 1009.7 1008.1 0.1
02 12.09 ЮЗ 14
{20}
16 км в посл. час дождь {ливн. осадки} 10/10 270 м
[]
+14.6 +13.5 93 +11 +11 1009.4 1007.7 0.3
03 12.09 ЮЗ 12
{18}
24 км {ливн. осадки, дождь} 10/10 420 м
[]
+14.6 +13.0 90 +12 +12 1009.3 1007.8
04 12.09 ЮЗ 13
{18}
35 км в посл. час дождь {ливн. осадки} 9/0
[]
+14.4 +12.8 90 +11 +11 1009.3 1007.7
05 12.09 ЮЗ 11
{18}
24 км {ливн. осадки, дождь} 6/6 1380 м
[]
+14.0 +12.5 91 +11 +11 1009.3 1007.7
06 12.09 ЮЗ 12
{18}
26 км {ливн. осадки, дождь} ясно +14.0 +12.2 89 +11 +11 1009.5 1007.9 +13.8 +16.5
07 12.09 ЮЗ 12
{16}
22 км ясно +14.1 +11.8 86 +11 +11 1009.8 1008.2
08 12.09 ЮЗ 11
{16}
23 км ясно +13.9 +11.8 87 +11 +11 1010.4 1008.8
09 12.09 ЮЗ 8
{13}
21 км ясно +14.2 +11.9 86 +12 +13 1011.1 1009.5
10 12.09 ЮЗ 7
{11}
29 км ясно +15.4 +11.8 79 +14 +15 1011.4 1009.8
11 12.09 ЮЗ 8
{11}
25 км ясно +15.1 +12.0 82 +13 +14 1012.0 1010.4
12 12.09 ЮЗ 7
{11}
23 км ясно +15.2 +12.2 82 +13 +15 1012.5 1010.8
13 12.09 ЮЗ 8
{10}
26 км ясно +15.5 +12.2 81 +14 +14 1012.4 1010.8
14 12.09 ЮЗ 9
{12}
30 км 6/6 1410 м
[]
+15.6 +11.8 78 +14 +14 1012.6 1011.1
15 12.09 ЮЗ 10
{13}
26 км ясно +15.0 +11.8 81 +13 +13 1012.8 1011.2
16 12.09 ЮЗ 8
{13}
27 км ясно +14.8 +12.2 84 +13 +13 1012.8 1011.2
17 12.09 ЮЗ 10
{12}
28 км 3/0
[]
+14.6 +11.8 83 +12 +12 1012.7 1011.1
18 12.09 ЮЗ 10
{13}
30 км 9/0
[]
+15.1 +11.7 80 +13 +13 1013.2 1011.6 +13.8 +16.1
19 12.09 ЮЗ 9
{14}
26 км 4/0
[]
+14.7 +12.0 84 +12 +12 1013.4 1011.8
20 12.09 ЮЗ 10
{12}
30 км 4/0
[]
+15.0 +11.2 78 +13 +13 1013.1 1011.4
21 12.09 ЮЗ 9 30 км 8/0
[]
+14.9 +11.3 79 +13 +13 1012.9 1011.3
22 12.09 ЮЗ 9
{12}
35 км 10/0
[]
+14.4 +11.6 83 +12 +12 1012.6 1011.0
23 12.09 ЮЗ 10
{13}
35 км 9/0
[]
+14.4 +11.4 82 +12 +12 1012.1 1010.5
00 13.09 ЮЗ 10
{14}
30 км 10/0
[]
+14.3 +11.3 82 +12 +12 1011.9 1010.3
01 13.09 ЮЗ 9
{12}
22 км 10/0
[]
+14.3 +11.4 83 +12 +12 1011.7 1010.1
02 13.09 ЮЗ 8
{11}
35 км 10/0
[]
+14.2 +11.2 82 +12 +12 1011.3 1009.7
03 13.09 ЮЗ 9
{11}
27 км 6/0
[]
+13.9 +11.2 84 +11 +11 1010.9 1009.2
04 13.09 ЮЗ 9
{11}
30 км 10/0
[]
+13.7 +11.3 85 +11 +11 1010.8 1009.2
05 13.09 ЮЗ 8
{11}
40 км 10/0
[]
+13.6 +10.8 83 +11 +11 1010.7 1009.1
06 13.09 З 8
{11}
40 км 6/0
[]
+13.9 +11.1 83 +11 +11 1010.8 1009.2 +13.5 +15.9
07 13.09 З 9
{11}
35 км 10/10 750 м
[]
+13.9 +11.1 83 +11 +11 1010.8 1009.2
08 13.09 З 8
{11}
35 км 10/10 750 м
[]
+14.2 +11.2 82 +12 +12 1010.7 1009.1
09 13.09 З 8
{10}
40 км 4/0
[]
+15.2 +10.8 75 +13 +14 1010.5 1008.9
10 13.09 З 7
{10}
40 км ясно +16.1 +10.6 70 +15 +16 1010.7 1009.1
11 13.09 З 8
{10}
35 км ясно +16.2 +9.9 66 +15 +16 1011.0 1009.4
12 13.09 С 11
{17}
22 км слаб. дождь 10/10 150 м
[]
+11.3 +9.0 86 +7 +7 1012.7 1011.1
13 13.09 СЗ 7
{12}
45 км в посл. час дождь {ливн. осадки} 6/6 1500 м
[]
+11.9 +9.2 84 +9 +9 1013.4 1011.8 0.0
14 13.09 З 6
{8}
50 км {ливн. осадки, дождь} ясно +12.7 +9.5 81 +10 +11 1014.1 1012.5
15 13.09 З 6
{8}
45 км {ливн. осадки, дождь} ясно +13.4 +9.4 77 +11 +12 1014.8 1013.2
16 13.09 З 4
{6}
50 км {ливн. осадки, дождь} 1/0
[]
+13.2 +9.8 80 +12 +12 1015.1 1013.5
17 13.09 ЮЗ 6
{8}
40 км {ливн. осадки, дождь} ясно +13.1 +10.8 86 +11 +11 1015.5 1013.8
18 13.09 ЮЗ 7
{9}
40 км {ливн. осадки, дождь} 4/0 2000 м
[]
+13.5 +10.0 79 +11 +11 1015.8 1014.1 +11.0 +16.7
19 13.09 З 9
{11}
45 км ясно +13.7 +9.8 77 +11 +11 1016.3 1014.6
20 13.09 З 8
{11}
45 км ясно +13.7 +9.2 74 +11 +11 1016.5 1014.8
21 13.09 З 10
{13}
40 км ясно +14.0 +8.2 68 +11 +11 1016.7 1015.1
22 13.09 З 9
{13}
50 км ясно +13.7 +7.9 68 +11 +11 1017.1 1015.5
23 13.09 З 10
{14}
45 км ясно +13.3 +8.2 71 +10 +10 1017.4 1015.8
00 14.09 З 10
{13}
45 км 1/0
[]
+12.9 +7.6 70 +10 +10 1017.6 1015.9
01 14.09 З 11
{13}
50 км ясно +12.7 +6.5 66 +9 +9 1017.6 1016.0
02 14.09 З 10
{13}
50 км ясно +12.2 +6.7 69 +9 +9 1017.8 1016.2
03 14.09 З 11
{13}
45 км ясно +11.9 +6.2 68 +8 +8 1018.1 1016.4
04 14.09 З 11
{14}
45 км ясно +11.4 +5.7 68 +7 +7 1018.3 1016.6
05 14.09 З 12
{15}
40 км ясно +11.1 +6.0 71 +7 +7 1018.6 1016.9
06 14.09 З 11
{14}
40 км ясно +10.8 +6.0 72 +7 +7 1018.9 1017.2 +10.6 +14.0
07 14.09 З 10
{13}
45 км ясно +11.2 +5.5 68 +7 +7 1019.5 1017.9
08 14.09 З 9
{12}
45 км ясно +11.9 +6.2 68 +9 +9 1020.1 1018.5
09 14.09 З 7
{12}
50 км ясно +12.7 +5.9 63 +10 +12 1020.4 1018.8
10 14.09 З 8
{10}
50 км ясно +13.4 +5.6 59 +11 +12 1020.4 1018.8
11 14.09 З 7
{10}
20 км ясно +13.5 +4.9 56 +11 +13 1020.4 1018.8
12 14.09 З 8
{10}
40 км ясно +14.8 +5.3 53 +13 +14 1020.4 1018.8
13 14.09 З 8
{11}
45 км ясно +14.8 +5.3 53 +13 +14 1019.9 1018.3
14 14.09 ЮЗ 7
{11}
40 км ясно +15.1 +5.6 53 +13 +14 1019.6 1018.0
15 14.09 З 6
{8}
40 км ясно +15.0 +5.8 54 +13 +14 1019.1 1017.4
16 14.09 З 9
{11}
14 км ясно +14.1 +6.4 60 +12 +12 1018.4 1016.8
17 14.09 ЮЗ 5
{10}
40 км ясно +13.7 +7.9 68 +12 +12 1018.0 1016.4
18 14.09 ЮЗ 6
{7}
50 км ясно +13.4 +9.4 77 +11 +11 1017.4 1015.8 +10.6 +15.2
19 14.09 ЮЗ 7
{9}
45 км 6/0
[]
+13.8 +8.0 68 +12 +12 1017.0 1015.4
20 14.09 ЮЗ 8
{10}
50 км 6/0
[]
+13.6 +8.5 71 +11 +11 1015.6 1014.0
21 14.09 ЮЗ 11
{14}
35 км 9/9 1500 м
[]
+13.4 +9.1 75 +10 +10 1014.5 1012.9
22 14.09 ЮЗ 12
{15}
30 км 10/10 1500 м
[]
+12.3 +10.0 86 +8 +8 1013.2 1011.6
23 14.09 ЮЗ 9
{13}
17 км слаб. дождь 10/10 1320 м
[]
+12.9 +10.3 84 +10 +10 1012.1 1010.5
00 15.09 ЮЗ 12
{15}
11 км слаб. дождь 10/10 1380 м
[]
+12.4 +9.8 84 +9 +9 1010.5 1008.9 0.1
01 15.09 ЮЗ 15
{19}
7000 м слаб. дождь 10/10 420 м
[]
+11.9 +10.5 91 +7 +7 1008.5 1006.9 1
02 15.09 ЮЗ 17
{22}
8000 м слаб. дождь 10/10 420 м
[]
+11.6 +10.0 90 +7 +7 1006.2 1004.5 3
03 15.09 ЮЗ 16
{24}
8000 м слаб. дождь 10/10 360 м
[]
+11.4 +10.1 92 +6 +6 1003.7 1002.0 0.4
04 15.09 ЮЗ 18
{24}
13 км слаб. дождь 10/10 360 м
[]
+11.6 +10.0 90 +6 +6 1001.1 999.4 0.8
05 15.09 ЮЗ 17
{24}
17 км слаб. дождь 10/10 400 м
[]
+11.5 +10.1 91 +6 +6 999.5 997.9
06 15.09 ЮЗ 15
{22}
20 км {дождь} 10/10 450 м
[]
+11.5 +10.1 91 +7 +7 997.9 996.3 +11.3 +13.8
07 15.09 ЮЗ 14
{19}
20 км 10/10 420 м
[]
+11.6 +10.4 92 +7 +7 996.8 995.2
08 15.09 ЮЗ 13
{17}
19 км в посл. час дождь {ливн. осадки} 10/10 400 м
[]
+11.9 +10.6 92 +8 +8 995.3 993.7
09 15.09 ЮЗ 13
{18}
18 км {ливн. осадки, дождь} 4/4 210 м
[]
+12.0 +10.7 92 +8 +8 993.9 992.3
10 15.09 ЮЗ 16
{27}
4900 м слаб. дождь 4/4 120 м
[]
+10.9 +9.1 89 +6 +6 994.0 992.4 0.4
11 15.09 З 11
{16}
30 км в посл. час дождь {ливн. осадки} ясно +13.9 +10.3 79 +11 +11 993.4 991.9
12 15.09 З 12 45 км {ливн. осадки, дождь} ясно +14.8 +8.5 66 +12 +12 993.3 991.7
13 15.09 З 12 40 км 1/1 1500 м
[]
+15.0 +8.3 64 +12 +12 993.3 991.7
14 15.09 З 12 40 км 4/4 1500 м
[]
+14.9 +7.7 62 +12 +12 993.3 991.8
15 15.09 З 11
{15}
40 км 10/10 1500 м
[]
+14.6 +7.7 63 +12 +12 993.4 991.8
16 15.09 З 12
{16}
40 км 1/1 1500 м
[]
+14.1 +7.2 63 +11 +11 993.5 991.9
17 15.09 З 10
{15}
35 км ясно +13.5 +7.3 66 +11 +11 993.9 992.3
18 15.09 З 12
{16}
29 км 5/5 1500 м
[]
+13.3 +6.8 65 +10 +10 994.0 992.4 +10.6 +15.3
19 15.09 З 10
{14}
25 км 10/0
[]
+13.3 +7.5 68 +10 +10 993.9 992.3
20 15.09 З 11
{14}
30 км 10/0
[]
+13.2 +7.8 70 +10 +10 993.6 992.0
21 15.09 З 11
{15}
28 км 10/0
[]
+12.9 +8.2 73 +10 +10 993.2 991.6
22 15.09 З 12
{17}
30 км 9/0
[]
+12.9 +8.6 75 +9 +9 992.8 991.2
23 15.09 З 13
{16}
30 км 5/0
[]
+12.7 +8.6 76 +9 +9 992.8 991.2
00 16.09 З 11
{15}
40 км 1/0
[]
+12.7 +8.6 76 +9 +9 993.2 991.6
01 16.09 З 12
{15}
45 км ясно +12.6 +7.7 72 +9 +9 993.4 991.7
02 16.09 З 12
{16}
45 км ясно +12.3 +6.8 69 +9 +9 993.7 992.1
03 16.09 З 12 50 км ясно +11.9 +6.6 70 +8 +8 993.9 992.3
04 16.09 З 14
{17}
50 км ясно +11.7 +6.2 69 +7 +7 994.2 992.7
05 16.09 З 11
{17}
40 км 10/10 1350 м
[]
+11.7 +6.4 70 +8 +8 994.9 993.3
06 16.09 З 13
{17}
45 км 10/10 1230 м
[]
+11.8 +6.3 69 +8 +8 995.3 993.7 +11.5 +13.6
07 16.09 З 12
{18}
30 км 8/8 1170 м
[]
+12.0 +6.7 70 +8 +8 995.9 994.3
08 16.09 СЗ 12
{17}
35 км ясно +12.1 +5.7 65 +8 +8 996.3 994.7
09 16.09 СЗ 11
{16}
35 км 8/8 1000 м
[]
+12.3 +5.9 65 +9 +9 997.0 995.5
10 16.09 СЗ 10
{14}
35 км 10/10 1110 м
[]
+12.2 +6.7 69 +9 +9 998.1 996.5
11 16.09 СЗ 8
{11}
50 км 10/10 1080 м
[]
+12.1 +6.2 67 +9 +9 998.7 997.1
12 16.09 СЗ 10
{12}
40 км 10/10 1300 м
[]
+12.1 +6.6 69 +9 +9 999.0 997.4
13 16.09 СЗ 8 50 км 10/10 1380 м
[]
+11.9 +6.6 70 +9 +9 999.5 997.9
14 16.09 З 10
{12}
45 км 10/10 1140 м
[]
+12.8 +7.1 68 +10 +10 999.9 998.3
15 16.09 СЗ 8
{12}
50 км 10/10 930 м
[]
+12.3 +7.3 72 +9 +9 1000.2 998.6
16 16.09 СЗ 8
{11}
50 км 10/10 1500 м
[]
+11.9 +7.0 72 +9 +9 1000.5 998.9
17 16.09 З 7
{15}
27 км слаб. ливневой дождь 10/10 1500 м
[]
+10.1 +7.7 85 +6 +6 1000.7 999.1 0.5
18 16.09 З 8
{10}
50 км {ливн. осадки, дождь} 10/10 600 м
[]
+10.7 +8.2 85 +7 +7 1000.7 999.1 +9.8 +12.9
19 16.09 СЗ 10
{13}
40 км 10/10 500 м
[]
+10.5 +8.3 86 +6 +6 1000.8 999.2
20 16.09 З 11
{14}
40 км 10/10 500 м
[]
+10.3 +8.2 87 +6 +6 1001.0 999.3
21 16.09 З 13
{15}
50 км 10/10 540 м
[]
+10.0 +7.6 85 +5 +5 1000.8 999.2
22 16.09 СЗ 12
{15}
50 км 10/10 570 м
[]
+10.1 +6.8 80 +5 +5 1000.6 999.0
23 16.09 СЗ 13
{16}
28 км слаб. дождь 10/10 630 м
[]
+10.0 +6.9 81 +5 +5 1000.5 998.9
00 17.09 СЗ 9
{15}
35 км слаб. ливневой дождь 10/10 870 м
[]
+10.2 +5.9 75 +6 +6 1000.5 998.8
01 17.09 З 9
{12}
45 км {дождь} 10/0
[]
+10.2 +6.5 78 +6 +6 1000.2 998.5
02 17.09 З 9
{11}
45 км {дождь} 10/0
[]
+10.4 +6.4 76 +6 +6 999.9 998.2
03 17.09 З 8
{11}
50 км {дождь} 10/0
[]
+10.1 +5.9 75 +6 +6 999.5 997.9
04 17.09 З 7
{9}
50 км {дождь} 1/0
[]
+9.9 +5.8 76 +6 +6 999.4 997.7
05 17.09 З 6
{8}
50 км {дождь} 4/0
[]
+9.7 +6.0 78 +6 +6 999.0 997.4
06 17.09 З 4
{7}
50 км {дождь} 3/0
[]
+9.6 +5.5 76 +7 +7 998.7 997.1 +9.5 +10.9
07 17.09 З 5
{6}
40 км 10/0
[]
+10.1 +5.3 72 +7 +8 998.6 997.0
08 17.09 СЗ 4
{5}
50 км 3/0
[]
+10.3 +5.9 74 +8 +10 998.5 996.9
09 17.09 СЗ 3
{5}
30 км ясно +11.3 +5.4 67 +10 +14 998.5 996.9
10 17.09 С 3
{5}
40 км ясно +11.3 +5.7 68 +10 +14 998.3 996.7
11 17.09 С 4
{6}
40 км ясно +12.3 +5.7 64 +11 +14 998.2 996.6
12 17.09 С 6
{8}
45 км 3/3 750 м
[]
+12.4 +6.9 69 +10 +11 998.3 996.7
13 17.09 С 7
{10}
40 км 8/8 800 м
[]
+12.3 +6.8 69 +10 +10 998.1 996.5
14 17.09 40 км 9/9 800 м
[]
+12.1 +7.2 72 998.3 996.7
15 17.09 СВ 4
{14}
50 км слаб. ливневой дождь 6/6 1050 м
[]
+10.2 +7.1 81 +8 +8 998.6 997.0
16 17.09 С 9
{14}
45 км в посл. час дождь 10/10 1500 м
[]
+10.5 +6.2 75 +7 +7 999.0 997.4
17 17.09 С 9
{13}
50 км 10/0
[]
+10.8 +7.4 80 +7 +7 999.2 997.6
18 17.09
{13}
35 км 10/0
[]
+11.3 +5.4 67 999.9 998.3
19 17.09 С 8
{13}
50 км 10/10 1500 м
[]
+11.0 +7.5 79 +7 +7 1000.3 998.7
20 17.09 СЗ 8
{13}
35 км 8/8 1110 м
[]
+10.5 +6.9 78 +7 +7 1001.0 999.3
21 17.09 СЗ 8
{12}
45 км 8/8 630 м
[]
+10.1 +7.4 83 +6 +6 1001.3 999.6
22 17.09 СЗ 6
{11}
50 км 10/10 1200 м
[]
+10.9 +6.9 76 +8 +8 1001.7 1000.1
23 17.09 СЗ 10
{14}
23 км слаб. дождь 6/6 330 м
[]
+9.8 +7.7 87 +5 +5 1002.0 1000.4
00 18.09 СЗ 11
{14}
7000 м слаб. ливневой дождь 10/10 180 м
[]
+9.3 +8.1 92 +4 +4 1002.1 1000.5 0.5
01 18.09 СЗ 11
{16}
7000 м слаб. ливневой дождь 10/10 180 м
[]
+9.8 +8.7 93 +5 +5 1002.2 1000.5 2
02 18.09 С 10
{15}
50 км в посл. час дождь {ливн. осадки} 10/10 600 м
[]
+10.4 +6.8 78 +6 +6 1002.7 1001.1
03 18.09 С 8
{14}
45 км {ливн. осадки, дождь} 10/10 540 м
[]
+10.3 +7.5 83 +6 +6 1003.1 1001.5
04 18.09 СЗ 9
{14}
45 км в посл. час дождь {ливн. осадки} 10/10 420 м
[]
+9.8 +8.2 90 +5 +5 1003.6 1002.0 0.1
05 18.09 СЗ 11
{15}
45 км {ливн. осадки, дождь} 10/10 500 м
[]
+9.8 +8.0 89 +5 +5 1004.4 1002.7
06 18.09 СЗ 11
{14}
14 км слаб. ливневой дождь 10/10 360 м
[]
+9.4 +8.0 91 +4 +4 1005.0 1003.4 +8.9 +11.5
07 18.09 СЗ 11
{14}
45 км слаб. ливневой дождь 10/10 270 м
[]
+9.2 +8.3 94 +4 +4 1005.5 1003.9 1
08 18.09 СЗ 11
{15}
35 км в посл. час дождь {ливн. осадки} 10/10 270 м
[]
+9.4 +8.3 93 +4 +4 1006.4 1004.7
09 18.09 СЗ 5
{13}
40 км в посл. час дождь {ливн. осадки} 10/10 360 м
[]
+10.7 +8.3 85 +8 +8 1007.2 1005.5 0.1
10 18.09 СЗ 7
{11}
45 км {ливн. осадки, дождь} 10/0
[]
+10.6 +7.6 82 +7 +8 1008.0 1006.4
11 18.09 СЗ 8
{12}
40 км {ливн. осадки, дождь} 10/10 800 м
[]
+10.8 +7.1 78 +7 +7 1008.9 1007.2
12 18.09 СЗ 9 40 км 10/0
[]
+11.0 +7.1 77 +7 +7 1009.7 1008.0
13 18.09 СЗ 9
{14}
40 км 10/10 450 м
[]
+11.1 +7.8 80 +7 +7 1010.2 1008.5
14 18.09 СЗ 9
{13}
40 км в посл. час дождь {ливн. осадки} 10/10 570 м
[]
+10.9 +7.8 81 +7 +7 1010.7 1009.1
15 18.09 С 8
{14}
21 км слаб. дождь 9/9 330 м
[]
+9.7 +7.2 84 +6 +6 1011.2 1009.6
16 18.09 СЗ 8
{14}
28 км слаб. ливневой дождь 9/9 630 м
[]
+10.0 +6.9 81 +6 +6 1011.8 1010.1
17 18.09 СЗ 8
{13}
7000 м ливневой дождь 10/10 150 м
[]
+9.1 +7.2 88 +5 +5 1012.3 1010.7

 

Местоположение метеостанции Свенска Хогарна АМС (Швеция): широта 59.43 долгота 19.50 высота над уровнем моря 12 м.

В архиве по умолчанию представлена погода в Свенска Хогарна АМС за последнюю неделю. Архивные данные за месяц целиком и за предыдущие месяцы, начиная с января 2011 года, Вы можете получить, выбрав интересующий диапазон дат из раскрывающегося списка и нажав кнопку "Ввод!".


*Определитесь, кто Вы:
робот инопланетянин человек

Внимание! Время в таблицах - всемирное. Для получения местного времени необходимо прибавить поправку, которая равна 1 ч.

Смотрите также архив погоды в соседних городах и на ближайших метеорологических станциях:

Погода в Свенска Хогарна (Швеция) (2 км)
Погода в Содерарме (Швеция) (36 км)
Погода в Ставстане (Швеция) (48 км)
Погода в Кокар Богскар (Финляндия) (49 км)
Погода в Лемланд Нихамн (Финляндия) (64 км)
Погода в Сванберге (Швеция) (66 км)
Погода в Йомала аэропорту (Финляндия) (80 км)
Погода в Стокгольм обсерватории (Швеция) (81 км)
Погода в Стокгольме АМС (Швеция) (81 км)
Погода в Йомале (Финляндия) (88 км)

Пояснения к столбцам:

Ветер - указаны скорость ветра в м/с - средняя за 10 мин, порывы в срок и между сроками (в фигурных скобках) и направление, откуда дует ветер: С - северный, СВ - северо-восточный, В - восточный, ЮВ - юго-восточный, Ю - южный, ЮЗ - юго-западный, З - западный, СЗ - северо-западный.
Видимость - горизонтальная дальность видимости в метрах или километрах. При видимости от 1 до 10 км при отсутствии осадков обычно наблюдается дымка, при ухудшении видимости до 1 км и менее - туман. В сухую погоду видимость может ухудшаться дымом, пылью или мглою.
Явления - указаны атмосферные явления, наблюдавшиеся в срок или в последний час перед сроком; фигурными скобками обозначены явления, наблюдавшиеся между сроками (за 1-3 часа до срока); квадратными скобками обозначены град или гололедные отложения с указанием их диаметра в мм.
Облачность - указаны через наклонную черту общая и нижняя облачность в баллах и высота нижней границы облаков в метрах; квадратными скобками обозначены формы облаков: Ci - перистые, Cs - перисто-слоистые, Cc - перисто-кучевые, Ac - высококучевые, As - высокослоистые, Sc - слоисто-кучевые, Ns - слоисто-дождевые, Cu - кучевые, Cb - кучево-дождевые. Подробнее классификацию облаков см. в Атласе облаков (PDF).
T - Температура воздуха - температура, измеренная на высоте 2 м над землей.
Td - Температура точки росы - температура, при понижении до которой содержащийся в воздухе водяной пар достигнет насыщения.
f - Относительная влажность воздуха - влажноcть воздуха, измеренная на высоте 2 м над землей.
Te - Эффективная температура - температура, которую ощущает одетый по сезону человек в тени. Характеристика душности погоды. При расчете учитывается влияние влажности воздуха и скорости ветра на теплоощущения человека.
Tes - Эффективная температура на солнце - температура, которую ощущает человек, с поправкой на солнечный нагрев. Характеристика знойности погоды. Зависит от высоты солнца над горизонтом, облачности и скорости ветра. Ночью, в пасмурную погоду, а также при ветре 12 м/с и более поправка равна нулю.
P - Атмосферное давление - приведенное к уровню моря атмосферное давление.
Po - Атмосферное давление - измеренное на уровне метеостанции атмосферное давление.
Tmin - Минимальная температура - минимум температуры воздуха на высоте 2 м над землей.
Tmax - Максимальная температура - максимум температуры воздуха на высоте 2 м над землей.
R - Количество осадков - Количество выпавших осадков за период времени, мм. При наведении курсора мыши на число - период времени, за который выпало указанное количество осадков.
R24 - Количество осадков - Количество выпавших осадков за 24 часа, мм.
S - Снежный покров - Высота снежного покрова, см. При наведении курсора мыши на число - состояние снежного покрова и степень покрытия местности в баллах.